Time,TemperatureF,DewpointF,PressureIn,WindDirection,WindDirectionDegrees,WindSpeedMPH,WindSpeedGustMPH,Humidity,HourlyPrecipIn,Conditions,Clouds,dailyrainin,SoftwareType,DateUTC
2013-06-04 00:03:00,58.0,45.0,29.96,West,274,0.0,0.0,62,0.00,,,0.00,,2013-06-04 04:03:00,
2013-06-04 00:13:00,58.0,45.0,29.96,West,274,0.0,0.0,62,0.00,,,0.00,,2013-06-04 04:13:00,
2013-06-04 00:23:00,57.0,45.0,29.96,WSW,248,0.0,1.0,64,0.00,,,0.00,,2013-06-04 04:23:00,
2013-06-04 00:33:00,57.0,45.0,29.96,WNW,297,0.0,1.0,64,0.00,,,0.00,,2013-06-04 04:33:00,
2013-06-04 00:42:00,57.0,45.0,29.96,WNW,297,0.0,1.0,64,0.00,,,0.00,,2013-06-04 04:42:00,
2013-06-04 00:53:00,56.0,44.0,29.97,WSW,248,0.0,1.0,65,0.00,,,0.00,,2013-06-04 04:53:00,
2013-06-04 01:02:00,55.0,43.0,29.97,WNW,283,0.0,1.0,65,0.00,,,0.00,,2013-06-04 05:02:00,
2013-06-04 01:12:00,55.0,43.0,29.97,WNW,283,0.0,1.0,65,0.00,,,0.00,,2013-06-04 05:12:00,
2013-06-04 01:22:00,55.0,43.0,29.98,NW,304,0.0,1.0,64,0.00,,,0.00,,2013-06-04 05:22:00,
2013-06-04 01:32:00,55.0,43.0,29.98,West,261,0.0,1.0,64,0.00,,,0.00,,2013-06-04 05:32:00,
2013-06-04 01:42:00,55.0,43.0,29.98,West,261,0.0,1.0,64,0.00,,,0.00,,2013-06-04 05:42:00,
2013-06-04 01:52:00,54.0,40.0,29.98,North,9,1.0,2.0,60,0.00,,,0.00,,2013-06-04 05:52:00,
2013-06-04 02:02:00,55.0,39.0,29.99,NNW,348,2.0,3.0,55,0.00,,,0.00,,2013-06-04 06:02:00,
2013-06-04 02:12:00,55.0,39.0,29.99,NNW,348,2.0,3.0,55,0.00,,,0.00,,2013-06-04 06:12:00,
2013-06-04 02:22:00,54.0,39.0,30.00,North,355,1.0,2.0,57,0.00,,,0.00,,2013-06-04 06:22:00,
2013-06-04 02:32:00,54.0,40.0,30.00,WSW,256,0.0,1.0,60,0.00,,,0.00,,2013-06-04 06:32:00,
2013-06-04 02:42:00,54.0,40.0,30.00,WSW,256,0.0,1.0,60,0.00,,,0.00,,2013-06-04 06:42:00,
2013-06-04 02:52:00,53.0,39.0,30.00,WSW,248,1.0,2.0,59,0.00,,,0.00,,2013-06-04 06:52:00,
2013-06-04 03:02:00,53.0,39.0,30.00,WSW,244,1.0,2.0,60,0.00,,,0.00,,2013-06-04 07:02:00,
2013-06-04 03:12:00,53.0,39.0,30.00,WSW,244,1.0,2.0,60,0.00,,,0.00,,2013-06-04 07:12:00,
2013-06-04 03:22:00,52.0,39.0,30.00,West,274,0.0,2.0,62,0.00,,,0.00,,2013-06-04 07:22:00,
2013-06-04 03:32:00,52.0,40.0,30.00,NNW,347,0.0,0.0,63,0.00,,,0.00,,2013-06-04 07:32:00,
2013-06-04 03:42:00,52.0,40.0,30.00,NNW,347,0.0,0.0,63,0.00,,,0.00,,2013-06-04 07:42:00,
2013-06-04 03:52:00,51.0,40.0,30.00,WSW,257,0.0,0.0,65,0.00,,,0.00,,2013-06-04 07:52:00,
2013-06-04 04:02:00,51.0,40.0,30.01,West,270,0.0,0.0,65,0.00,,,0.00,,2013-06-04 08:02:00,
2013-06-04 04:12:00,51.0,40.0,30.01,West,270,0.0,0.0,65,0.00,,,0.00,,2013-06-04 08:12:00,
2013-06-04 04:22:00,50.0,39.0,30.01,WSW,248,1.0,2.0,67,0.00,,,0.00,,2013-06-04 08:22:00,
2013-06-04 04:32:00,49.0,39.0,30.01,West,261,1.0,2.0,67,0.00,,,0.00,,2013-06-04 08:32:00,
2013-06-04 04:42:00,49.0,39.0,30.01,West,261,1.0,2.0,67,0.00,,,0.00,,2013-06-04 08:42:00,
2013-06-04 04:52:00,49.0,39.0,30.00,West,262,0.0,2.0,69,0.00,,,0.00,,2013-06-04 08:52:00,
2013-06-04 05:02:00,49.0,39.0,30.01,WSW,248,1.0,2.0,69,0.00,,,0.00,,2013-06-04 09:02:00,
2013-06-04 05:12:00,49.0,39.0,30.01,WSW,248,1.0,2.0,69,0.00,,,0.00,,2013-06-04 09:12:00,
2013-06-04 05:22:00,48.0,39.0,30.01,WNW,288,0.0,2.0,71,0.00,,,0.00,,2013-06-04 09:22:00,
2013-06-04 05:33:00,48.0,39.0,30.01,WSW,248,1.0,2.0,71,0.00,,,0.00,,2013-06-04 09:33:00,
2013-06-04 05:43:00,48.0,39.0,30.01,WSW,248,1.0,2.0,71,0.00,,,0.00,,2013-06-04 09:43:00,
2013-06-04 05:53:00,48.0,39.0,30.01,SW,235,1.0,2.0,72,0.00,,,0.00,,2013-06-04 09:53:00,
2013-06-04 06:02:00,47.0,39.0,30.02,WSW,248,1.0,2.0,73,0.00,,,0.00,,2013-06-04 10:02:00,
2013-06-04 06:12:00,47.0,39.0,30.02,WSW,248,1.0,2.0,73,0.00,,,0.00,,2013-06-04 10:12:00,
2013-06-04 06:23:00,47.0,39.0,30.03,WSW,248,1.0,2.0,74,0.00,,,0.00,,2013-06-04 10:23:00,
2013-06-04 06:33:00,47.0,39.0,30.03,WSW,248,1.0,1.0,74,0.00,,,0.00,,2013-06-04 10:33:00,
2013-06-04 06:42:00,47.0,39.0,30.03,WSW,248,1.0,1.0,74,0.00,,,0.00,,2013-06-04 10:42:00,
2013-06-04 06:53:00,47.0,39.0,30.03,WSW,248,0.0,2.0,75,0.00,,,0.00,,2013-06-04 10:53:00,
2013-06-04 07:02:00,48.0,41.0,30.03,WSW,248,1.0,2.0,76,0.00,,,0.00,,2013-06-04 11:02:00,
2013-06-04 07:12:00,48.0,41.0,30.03,WSW,248,1.0,2.0,76,0.00,,,0.00,,2013-06-04 11:12:00,
2013-06-04 07:22:00,48.0,41.0,30.03,WSW,257,1.0,2.0,76,0.00,,,0.00,,2013-06-04 11:22:00,
2013-06-04 07:32:00,49.0,42.0,30.03,SW,221,1.0,2.0,76,0.00,,,0.00,,2013-06-04 11:32:00,
2013-06-04 07:42:00,49.0,42.0,30.03,SW,221,1.0,2.0,76,0.00,,,0.00,,2013-06-04 11:42:00,
2013-06-04 07:52:00,50.0,42.0,30.04,SW,220,1.0,2.0,75,0.00,,,0.00,,2013-06-04 11:52:00,
2013-06-04 08:02:00,50.0,42.0,30.05,WSW,252,2.0,7.0,74,0.00,,,0.00,,2013-06-04 12:02:00,
2013-06-04 08:12:00,50.0,42.0,30.05,WSW,252,2.0,7.0,74,0.00,,,0.00,,2013-06-04 12:12:00,
2013-06-04 08:22:00,52.0,44.0,30.05,WSW,248,1.0,3.0,73,0.00,,,0.00,,2013-06-04 12:22:00,
2013-06-04 08:32:00,52.0,43.0,30.05,WSW,258,0.0,2.0,72,0.00,,,0.00,,2013-06-04 12:32:00,
2013-06-04 08:42:00,52.0,43.0,30.05,WSW,258,0.0,2.0,72,0.00,,,0.00,,2013-06-04 12:42:00,
2013-06-04 08:53:00,53.0,43.0,30.06,NW,319,1.0,2.0,68,0.00,,,0.00,,2013-06-04 12:53:00,
2013-06-04 09:03:00,54.0,43.0,30.06,NW,320,1.0,2.0,67,0.00,,,0.00,,2013-06-04 13:03:00,
2013-06-04 09:12:00,54.0,43.0,30.06,NW,320,1.0,2.0,67,0.00,,,0.00,,2013-06-04 13:12:00,
2013-06-04 09:22:00,55.0,43.0,30.06,NNW,338,1.0,2.0,65,0.00,,,0.00,,2013-06-04 13:22:00,
2013-06-04 09:32:00,55.0,43.0,30.06,NNE,17,1.0,2.0,64,0.00,,,0.00,,2013-06-04 13:32:00,
2013-06-04 09:42:00,55.0,43.0,30.06,NNE,17,1.0,2.0,64,0.00,,,0.00,,2013-06-04 13:42:00,
2013-06-04 09:52:00,56.0,42.0,30.07,North,2,1.0,2.0,60,0.00,,,0.00,,2013-06-04 13:52:00,
2013-06-04 10:02:00,57.0,44.0,30.07,North,6,1.0,2.0,61,0.00,,,0.00,,2013-06-04 14:02:00,
2013-06-04 10:12:00,57.0,44.0,30.07,North,6,1.0,2.0,61,0.00,,,0.00,,2013-06-04 14:12:00,
2013-06-04 10:22:00,58.0,43.0,30.08,NNW,342,1.0,2.0,57,0.00,,,0.00,,2013-06-04 14:22:00,
2013-06-04 10:32:00,58.0,43.0,30.08,East,83,1.0,2.0,58,0.00,,,0.00,,2013-06-04 14:32:00,
2013-06-04 10:42:00,58.0,43.0,30.08,East,83,1.0,2.0,58,0.00,,,0.00,,2013-06-04 14:42:00,
2013-06-04 10:52:00,59.0,45.0,30.07,NNE,31,1.0,3.0,59,0.00,,,0.00,,2013-06-04 14:52:00,
2013-06-04 11:02:00,60.0,45.0,30.08,NNE,20,1.0,1.0,57,0.00,,,0.00,,2013-06-04 15:02:00,
2013-06-04 11:12:00,60.0,45.0,30.08,NNE,20,1.0,1.0,57,0.00,,,0.00,,2013-06-04 15:12:00,
2013-06-04 11:22:00,61.0,45.0,30.08,NNW,338,1.0,2.0,55,0.00,,,0.00,,2013-06-04 15:22:00,
2013-06-04 11:33:00,61.0,46.0,30.08,NW,313,2.0,5.0,57,0.00,,,0.00,,2013-06-04 15:33:00,
2013-06-04 11:42:00,61.0,46.0,30.08,NW,313,2.0,5.0,57,0.00,,,0.00,,2013-06-04 15:42:00,
2013-06-04 11:53:00,63.0,46.0,30.08,NNE,17,1.0,3.0,54,0.00,,,0.00,,2013-06-04 15:53:00,
2013-06-04 12:03:00,63.0,45.0,30.09,NNE,19,1.0,3.0,51,0.00,,,0.00,,2013-06-04 16:03:00,
2013-06-04 12:13:00,63.0,45.0,30.09,NNE,19,1.0,3.0,51,0.00,,,0.00,,2013-06-04 16:13:00,
2013-06-04 12:23:00,65.0,45.0,30.09,ENE,73,1.0,2.0,48,0.00,,,0.00,,2013-06-04 16:23:00,
2013-06-04 12:33:00,65.0,44.0,30.09,ENE,64,1.0,3.0,47,0.00,,,0.00,,2013-06-04 16:33:00,
2013-06-04 12:42:00,65.0,44.0,30.09,ENE,64,1.0,3.0,47,0.00,,,0.00,,2013-06-04 16:42:00,
2013-06-04 12:53:00,67.0,46.0,30.07,NNW,340,1.0,5.0,47,0.00,,,0.00,,2013-06-04 16:53:00,
2013-06-04 13:03:00,67.0,46.0,30.07,NE,51,2.0,5.0,46,0.00,,,0.00,,2013-06-04 17:03:00,
2013-06-04 13:12:00,67.0,46.0,30.07,NE,51,2.0,5.0,46,0.00,,,0.00,,2013-06-04 17:12:00,
2013-06-04 13:23:00,69.0,47.0,30.07,West,272,1.0,3.0,46,0.00,,,0.00,,2013-06-04 17:23:00,
2013-06-04 13:33:00,69.0,46.0,30.07,West,268,1.0,2.0,43,0.00,,,0.00,,2013-06-04 17:33:00,
2013-06-04 13:42:00,69.0,46.0,30.07,West,268,1.0,2.0,43,0.00,,,0.00,,2013-06-04 17:42:00,
2013-06-04 13:52:00,70.0,45.0,30.07,WNW,298,1.0,2.0,41,0.00,,,0.00,,2013-06-04 17:52:00,
2013-06-04 14:02:00,71.0,47.0,30.07,ESE,105,1.0,2.0,42,0.00,,,0.00,,2013-06-04 18:02:00,
2013-06-04 14:12:00,71.0,47.0,30.07,ESE,105,1.0,2.0,42,0.00,,,0.00,,2013-06-04 18:12:00,
2013-06-04 14:22:00,72.0,48.0,30.07,ENE,73,2.0,9.0,42,0.00,,,0.00,,2013-06-04 18:22:00,
2013-06-04 14:32:00,73.0,46.0,30.07,SW,221,1.0,2.0,38,0.00,,,0.00,,2013-06-04 18:32:00,
2013-06-04 14:42:00,73.0,46.0,30.07,SW,221,1.0,2.0,38,0.00,,,0.00,,2013-06-04 18:42:00,
2013-06-04 14:53:00,74.0,47.0,30.09,West,275,1.0,5.0,39,0.00,,,0.00,,2013-06-04 18:53:00,
2013-06-04 15:02:00,75.0,48.0,30.11,NNW,343,1.0,3.0,38,0.00,,,0.00,,2013-06-04 19:02:00,
2013-06-04 15:12:00,75.0,48.0,30.11,NNW,343,1.0,3.0,38,0.00,,,0.00,,2013-06-04 19:12:00,
2013-06-04 15:22:00,75.0,45.0,30.12,South,184,1.0,3.0,35,0.00,,,0.00,,2013-06-04 19:22:00,
2013-06-04 15:32:00,76.0,45.0,30.12,NNW,342,1.0,2.0,33,0.00,,,0.00,,2013-06-04 19:32:00,
2013-06-04 15:42:00,76.0,45.0,30.12,NNW,342,1.0,2.0,33,0.00,,,0.00,,2013-06-04 19:42:00,
2013-06-04 15:52:00,76.0,44.0,30.12,East,84,1.0,2.0,32,0.00,,,0.00,,2013-06-04 19:52:00,
2013-06-04 16:03:00,77.0,45.0,30.12,NNE,17,1.0,2.0,32,0.00,,,0.00,,2013-06-04 20:03:00,
2013-06-04 16:12:00,77.0,45.0,30.12,NNE,17,1.0,2.0,32,0.00,,,0.00,,2013-06-04 20:12:00,
2013-06-04 16:22:00,78.0,45.0,30.11,NNW,343,1.0,2.0,31,0.00,,,0.00,,2013-06-04 20:22:00,
2013-06-04 16:32:00,79.0,45.0,30.11,NNE,19,1.0,5.0,30,0.00,,,0.00,,2013-06-04 20:32:00,
2013-06-04 16:42:00,79.0,45.0,30.11,NNE,19,1.0,5.0,30,0.00,,,0.00,,2013-06-04 20:42:00,
2013-06-04 16:53:00,78.0,43.0,30.11,ESE,117,1.0,3.0,29,0.00,,,0.00,,2013-06-04 20:53:00,
2013-06-04 17:02:00,78.0,43.0,30.11,NW,319,1.0,2.0,29,0.00,,,0.00,,2013-06-04 21:02:00,
2013-06-04 17:12:00,78.0,43.0,30.11,NW,319,1.0,2.0,29,0.00,,,0.00,,2013-06-04 21:12:00,
2013-06-04 17:22:00,77.0,44.0,30.11,North,351,1.0,5.0,31,0.00,,,0.00,,2013-06-04 21:22:00,
2013-06-04 17:33:00,76.0,44.0,30.11,SW,225,1.0,2.0,32,0.00,,,0.00,,2013-06-04 21:33:00,
2013-06-04 17:42:00,76.0,44.0,30.11,SW,225,1.0,2.0,32,0.00,,,0.00,,2013-06-04 21:42:00,
2013-06-04 17:53:00,73.0,42.0,30.12,NNE,15,1.0,2.0,33,0.00,,,0.00,,2013-06-04 21:53:00,
2013-06-04 18:02:00,73.0,41.0,30.11,NE,47,1.0,2.0,32,0.00,,,0.00,,2013-06-04 22:02:00,
2013-06-04 18:13:00,73.0,41.0,30.11,NE,47,1.0,2.0,32,0.00,,,0.00,,2013-06-04 22:13:00,
2013-06-04 18:22:00,72.0,44.0,30.11,NE,43,1.0,2.0,36,0.00,,,0.00,,2013-06-04 22:22:00,
2013-06-04 18:32:00,71.0,43.0,30.11,NW,315,1.0,2.0,36,0.00,,,0.00,,2013-06-04 22:32:00,
2013-06-04 18:42:00,71.0,43.0,30.11,NW,315,1.0,2.0,36,0.00,,,0.00,,2013-06-04 22:42:00,
2013-06-04 18:52:00,70.0,43.0,30.04,NW,315,0.0,2.0,37,0.00,,,0.00,,2013-06-04 22:52:00,
2013-06-04 19:02:00,70.0,43.0,30.04,NW,318,0.0,2.0,37,0.00,,,0.00,,2013-06-04 23:02:00,
2013-06-04 19:12:00,70.0,43.0,30.04,NW,318,0.0,2.0,37,0.00,,,0.00,,2013-06-04 23:12:00,
2013-06-04 19:22:00,69.0,44.0,30.05,SW,227,0.0,0.0,40,0.00,,,0.00,,2013-06-04 23:22:00,
2013-06-04 19:32:00,69.0,44.0,30.05,SW,225,0.0,1.0,41,0.00,,,0.00,,2013-06-04 23:32:00,
2013-06-04 19:42:00,69.0,44.0,30.05,SW,225,0.0,1.0,41,0.00,,,0.00,,2013-06-04 23:42:00,
2013-06-04 19:52:00,68.0,44.0,30.05,West,270,0.0,0.0,42,0.00,,,0.00,,2013-06-04 23:52:00,
2013-06-04 20:02:00,67.0,44.0,30.06,West,275,0.0,0.0,43,0.00,,,0.00,,2013-06-05 00:02:00,
2013-06-04 20:12:00,67.0,44.0,30.06,West,275,0.0,0.0,43,0.00,,,0.00,,2013-06-05 00:12:00,
2013-06-04 20:22:00,66.0,44.0,30.06,ENE,64,0.0,0.0,45,0.00,,,0.00,,2013-06-05 00:22:00,
2013-06-04 20:33:00,65.0,44.0,30.06,NNE,28,0.0,0.0,46,0.00,,,0.00,,2013-06-05 00:33:00,
2013-06-04 20:42:00,65.0,44.0,30.06,NNE,28,0.0,0.0,46,0.00,,,0.00,,2013-06-05 00:42:00,
2013-06-04 20:52:00,65.0,45.0,30.06,NE,43,0.0,0.0,48,0.00,,,0.00,,2013-06-05 00:52:00,
2013-06-04 21:02:00,64.0,44.0,30.07,NNE,18,0.0,0.0,49,0.00,,,0.00,,2013-06-05 01:02:00,
2013-06-04 21:12:00,64.0,44.0,30.07,NNE,18,0.0,0.0,49,0.00,,,0.00,,2013-06-05 01:12:00,
2013-06-04 21:22:00,63.0,44.0,30.08,North,7,0.0,1.0,50,0.00,,,0.00,,2013-06-05 01:22:00,
2013-06-04 21:32:00,63.0,44.0,30.08,NE,42,0.0,1.0,50,0.00,,,0.00,,2013-06-05 01:32:00,
2013-06-04 21:42:00,63.0,44.0,30.08,NE,42,0.0,1.0,50,0.00,,,0.00,,2013-06-05 01:42:00,
2013-06-04 21:52:00,62.0,43.0,30.09,NNW,333,0.0,0.0,50,0.00,,,0.00,,2013-06-05 01:52:00,
2013-06-04 22:02:00,61.0,43.0,30.09,West,270,0.0,0.0,52,0.00,,,0.00,,2013-06-05 02:02:00,
2013-06-04 22:12:00,61.0,43.0,30.09,West,270,0.0,0.0,52,0.00,,,0.00,,2013-06-05 02:12:00,
2013-06-04 22:22:00,60.0,44.0,30.17,WSW,248,0.0,0.0,55,0.00,,,0.00,,2013-06-05 02:22:00,
2013-06-04 22:32:00,60.0,43.0,30.17,NNE,22,0.0,0.0,54,0.00,,,0.00,,2013-06-05 02:32:00,
2013-06-04 22:42:00,59.0,43.0,30.10,NE,45,0.0,0.0,56,0.00,,,0.00,,2013-06-05 02:42:00,
2013-06-04 22:52:00,59.0,43.0,30.10,NE,45,0.0,0.0,56,0.00,,,0.00,,2013-06-05 02:52:00,
2013-06-04 23:02:00,59.0,43.0,30.11,NNW,338,0.0,0.0,55,0.00,,,0.00,,2013-06-05 03:02:00,
2013-06-04 23:12:00,58.0,42.0,30.11,WSW,253,0.0,0.0,56,0.00,,,0.00,,2013-06-05 03:12:00,
2013-06-04 23:22:00,58.0,42.0,30.11,WSW,253,0.0,0.0,56,0.00,,,0.00,,2013-06-05 03:22:00,
2013-06-04 23:33:00,58.0,41.0,30.11,NNW,338,0.0,0.0,54,0.00,,,0.00,,2013-06-05 03:33:00,
2013-06-04 23:43:00,58.0,41.0,30.11,NNW,338,0.0,0.0,54,0.00,,,0.00,,2013-06-05 03:43:00,
2013-06-04 23:53:00,57.0,41.0,30.10,North,0,0.0,0.0,55,0.00,,,0.00,,2013-06-05 03:53:00,